Location: Newark
(34.1333°N, 7.9667°W)
Time: 09:52:04
(UTC+00:00)

EO-88 - Visible Passes

Search period start: 05 June 2023 00:00
Search period end: 15 June 2023 00:00
Orbit: 341 x 345 km, 97.2° (Epoch: 04 June)

Date Brightness Start Highest point End Pass type
(mag) Time Alt. Az. Time Alt. Az. Time Alt. Az.
05 Jun ? 22:21:48 15° N 22:21:48 15° N 22:22:25 10° N visible
06 Jun ? 22:44:35 12° NNW 22:44:35 12° NNW 22:44:54 10° NNW visible
08 Jun ? 21:57:48 13° NNE 21:57:48 13° NNE 21:58:13 10° NNE visible
09 Jun ? 22:19:36 15° N 22:19:36 15° N 22:20:14 10° N visible
10 Jun ? 22:41:05 13° NNW 22:41:05 13° NNW 22:41:30 10° NNW visible
12 Jun ? 21:51:45 11° NNE 21:51:45 11° NNE 21:51:58 10° NNE visible
13 Jun ? 22:12:15 15° NNE 22:12:15 15° NNE 22:12:51 10° N visible
14 Jun ? 22:32:25 15° NNW 22:32:25 15° NNW 22:32:59 10° NNW visible
